This demonstration page uses our WeatherBlox Daily Observations layout. Learn more.

Left ArrowRight Arrow

36.17497, -115.13722

Hourly Observations for October 21, 2016

Temp ( °F °C ) Dew Point ( °F °C ) Humidity (%) Winds ( mph kmh ) Pressure ( in mb ) Visibility ( mi km ) Precip ( " mm )
12:53 am 00:53 Clear 61 16.1 21 -6.1 21 21 Calm 30.09 1019 10 16.0934 0 0
1:53 am 01:53 Clear 61 16.1 22 -5.6 22 22 Calm 30.08 1019 10 16.0934 0 0
2:53 am 02:53 Clear 58 14.4 22 -5.6 25 25 NW 6 9 30.07 1018 10 16.0934 0 0
3:53 am 03:53 Clear 56 13.3 19 -7.2 24 24 NNW 3 6 30.06 1018 10 16.0934 0 0
4:53 am 04:53 Clear 57 13.9 20 -6.7 24 24 NW 5 7 30.07 1018 10 16.0934 0 0
5:53 am 05:53 Clear 54 12.2 21 -6.1 28 28 NW 5 7 30.08 1019 10 16.0934 0 0
6:53 am 06:53 Clear 55 12.8 23 -5 29 29 NNW 5 7 30.09 1019 10 16.0934 0 0
7:53 am 07:53 Sunny 58 14.4 20 -6.7 23 23 NW 5 7 30.11 1020 10 16.0934 0 0
8:53 am 08:53 Sunny 65 18.3 22 -5.6 19 19 N 3 6 30.11 1020 10 16.0934 0 0
9:53 am 09:53 Sunny 70 21.1 24 -4.4 18 18 SSE 7 11 30.1 1019 10 16.0934 0 0
10:53 am 10:53 Sunny 73 22.8 18 -7.8 12 12 SE 7 11 30.08 1019 10 16.0934 0 0
11:53 am 11:53 Sunny 76 24.4 16 -8.9 10 10 SE 6 9 30.05 1018 10 16.0934 0 0
12:53 pm 12:53 Sunny 78 25.6 17 -8.3 10 10 SSE 3 6 30.02 1017 10 16.0934 0 0
1:53 pm 13:53 Sunny 80 26.7 18 -7.8 10 10 SE 8 13 29.98 1015 10 16.0934 0 0
2:53 pm 14:53 Sunny 81 27.2 18 -7.8 9 9 S 5 7 29.95 1014 10 16.0934 0 0
3:53 pm 15:53 Sunny 82 27.8 20 -6.7 10 10 SSE 7 11 29.93 1014 10 16.0934 0 0
4:53 pm 16:53 Sunny 83 28.3 20 -6.7 10 10 Calm 29.91 1013 10 16.0934 0 0
5:53 pm 17:53 Sunny 82 27.8 20 -6.7 10 10 Calm 29.9 1013 10 16.0934 0 0
6:53 pm 18:53 Clear 77 25 22 -5.6 13 13 Calm 29.9 1013 10 16.0934 0 0
7:53 pm 19:53 Clear 73 22.8 29 -1.7 19 19 W 6 9 29.91 1013 10 16.0934 0 0
8:53 pm 20:53 Clear 69 20.6 29 -1.7 22 22 NNW 5 7 29.91 1013 10 16.0934 0 0
9:53 pm 21:53 Clear 68 20 27 -2.8 21 21 WNW 5 7 29.92 1013 10 16.0934 0 0
10:53 pm 22:53 Clear 66 18.9 26 -3.3 22 22 WNW 6 9 29.92 1013 10 16.0934 0 0
11:53 pm 23:53 Clear 65 18.3 29 -1.7 26 26 WNW 7 11 29.91 1013 10 16.0934 0 0

Powered by AerisWeather